Year,Month,Day,Hour,Minute,Value (Times are PST for temperature in C)
2016,06,16,00,00,8.60
2016,06,16,00,01,8.60
2016,06,16,00,02,8.60
2016,06,16,00,03,8.60
2016,06,16,00,04,8.60
2016,06,16,00,05,8.60
2016,06,16,00,06,8.60
2016,06,16,00,07,8.60
2016,06,16,00,08,8.60
2016,06,16,00,09,8.60
2016,06,16,00,10,8.60
2016,06,16,00,11,8.60
2016,06,16,00,12,8.60
2016,06,16,00,13,8.50
2016,06,16,00,14,8.50
2016,06,16,00,15,8.40
2016,06,16,00,16,8.40
2016,06,16,00,17,8.40
2016,06,16,00,18,8.40
2016,06,16,00,19,8.40
2016,06,16,00,20,8.40
2016,06,16,00,21,8.40
2016,06,16,00,22,8.40
2016,06,16,00,23,8.50
2016,06,16,00,24,8.50
2016,06,16,00,25,8.50
2016,06,16,00,26,8.60
2016,06,16,00,27,8.60
2016,06,16,00,28,8.60
2016,06,16,00,29,8.60
2016,06,16,00,30,8.60
2016,06,16,00,31,8.70
2016,06,16,00,32,8.70
2016,06,16,00,33,8.80
2016,06,16,00,34,8.90
2016,06,16,00,35,8.90
2016,06,16,00,36,8.90
2016,06,16,00,37,8.90
2016,06,16,00,38,8.90
2016,06,16,00,39,8.80
2016,06,16,00,40,8.80
2016,06,16,00,41,8.70
2016,06,16,00,42,8.70
2016,06,16,00,43,8.60
2016,06,16,00,44,8.60
2016,06,16,00,45,8.60
2016,06,16,00,46,8.60
2016,06,16,00,47,8.50
2016,06,16,00,48,8.40
2016,06,16,00,49,8.40
2016,06,16,00,50,8.30
2016,06,16,00,51,8.20
2016,06,16,00,52,8.10
2016,06,16,00,53,8.00
2016,06,16,00,54,8.00
2016,06,16,00,55,7.90
2016,06,16,00,56,7.90
2016,06,16,00,57,7.80
2016,06,16,00,58,7.80
2016,06,16,00,59,7.80
2016,06,16,01,00,7.70
2016,06,16,01,01,7.70
2016,06,16,01,02,7.70
2016,06,16,01,03,7.60
2016,06,16,01,04,7.60
2016,06,16,01,05,7.50
2016,06,16,01,06,7.50
2016,06,16,01,07,7.40
2016,06,16,01,08,7.40
2016,06,16,01,09,7.40
2016,06,16,01,10,7.30
2016,06,16,01,11,7.40
2016,06,16,01,12,7.30
2016,06,16,01,13,7.30
2016,06,16,01,14,7.30
2016,06,16,01,15,7.30
2016,06,16,01,16,7.30
2016,06,16,01,17,7.30
2016,06,16,01,18,7.30
2016,06,16,01,19,7.30
2016,06,16,01,20,7.30
2016,06,16,01,21,7.30
2016,06,16,01,22,7.30
2016,06,16,05,54,7.60
2016,06,16,05,55,7.60
2016,06,16,05,56,7.50
2016,06,16,05,57,7.50
2016,06,16,05,58,7.50
2016,06,16,05,59,7.40
2016,06,16,06,00,7.40
2016,06,16,06,01,7.40
2016,06,16,06,02,7.40
2016,06,16,06,03,7.30
2016,06,16,06,04,7.30
2016,06,16,06,05,7.30
2016,06,16,06,06,7.30
2016,06,16,06,07,7.30
2016,06,16,06,08,7.30
2016,06,16,06,09,7.30
2016,06,16,06,10,7.30
2016,06,16,06,11,7.30
2016,06,16,06,12,7.30
2016,06,16,06,13,7.30
2016,06,16,06,14,7.30
2016,06,16,06,15,7.30
2016,06,16,06,16,7.30
2016,06,16,06,17,7.30
2016,06,16,06,18,7.30
2016,06,16,06,19,7.40
2016,06,16,06,20,7.40
2016,06,16,06,21,7.50
2016,06,16,06,22,7.60
2016,06,16,06,23,7.70
2016,06,16,06,24,7.70
2016,06,16,06,25,7.90
2016,06,16,06,26,8.00
2016,06,16,06,27,8.10
2016,06,16,06,28,8.20
2016,06,16,06,29,8.20
2016,06,16,06,30,8.30
2016,06,16,06,31,8.40
2016,06,16,06,32,8.40
2016,06,16,06,33,8.50
2016,06,16,06,34,8.50
2016,06,16,06,35,8.60
2016,06,16,06,36,8.60
2016,06,16,06,37,8.60
2016,06,16,06,38,8.70
2016,06,16,06,39,8.70
2016,06,16,06,40,8.70
2016,06,16,06,41,8.70
2016,06,16,06,42,8.70
2016,06,16,06,43,8.70
2016,06,16,06,44,8.70
2016,06,16,06,45,8.70
2016,06,16,06,46,8.70
2016,06,16,06,47,8.70
2016,06,16,06,48,8.70
2016,06,16,06,49,8.70
2016,06,16,06,50,8.70
2016,06,16,06,51,8.70
2016,06,16,06,52,8.70
2016,06,16,06,53,8.70
2016,06,16,06,54,8.60
2016,06,16,06,55,8.60
2016,06,16,06,56,8.60
2016,06,16,06,57,8.60
2016,06,16,06,58,8.60
2016,06,16,06,59,8.60
2016,06,16,07,00,8.60
2016,06,16,07,01,8.60
2016,06,16,07,02,8.60
2016,06,16,07,03,8.60
2016,06,16,07,04,8.60
2016,06,16,07,05,8.60
2016,06,16,07,06,8.60
2016,06,16,07,07,8.60
2016,06,16,07,08,8.60
2016,06,16,07,09,8.60
2016,06,16,07,10,8.60
2016,06,16,07,11,8.60
2016,06,16,07,12,8.70
2016,06,16,07,13,8.70
2016,06,16,07,14,8.70
2016,06,16,07,15,8.70
2016,06,16,07,16,8.70
2016,06,16,07,17,8.70
2016,06,16,07,18,8.70
2016,06,16,07,19,8.70
2016,06,16,07,20,8.80
2016,06,16,07,21,8.80
2016,06,16,07,22,8.90
2016,06,16,07,23,8.90
2016,06,16,07,24,9.00
2016,06,16,07,25,9.20
2016,06,16,07,26,9.30
2016,06,16,07,27,9.40
2016,06,16,07,28,9.50
2016,06,16,07,29,9.60
2016,06,16,07,30,9.70
2016,06,16,07,31,9.90
2016,06,16,07,32,10.00
2016,06,16,07,33,10.10
2016,06,16,07,34,10.30
2016,06,16,07,35,10.40
2016,06,16,07,36,10.50
2016,06,16,07,37,10.60
2016,06,16,07,38,10.70
2016,06,16,07,39,10.80
2016,06,16,07,40,10.90
2016,06,16,07,41,11.00
2016,06,16,07,42,11.10
2016,06,16,07,43,11.30
2016,06,16,07,44,11.40
2016,06,16,07,45,11.40
2016,06,16,07,46,11.50
2016,06,16,07,47,11.60
2016,06,16,07,48,11.70
2016,06,16,07,49,11.70
2016,06,16,07,50,11.80
2016,06,16,07,51,11.80
2016,06,16,07,52,11.90
2016,06,16,07,53,12.00
2016,06,16,07,54,12.10
2016,06,16,07,55,12.20
2016,06,16,07,56,12.30
2016,06,16,07,57,12.40
2016,06,16,07,58,12.40
2016,06,16,07,59,12.40
2016,06,16,08,00,12.50
2016,06,16,08,01,12.60
2016,06,16,08,02,12.60
2016,06,16,08,03,12.70
2016,06,16,08,04,12.80
2016,06,16,08,05,12.80
2016,06,16,08,06,13.00
2016,06,16,08,07,13.00
2016,06,16,08,08,13.20
2016,06,16,08,09,13.30
2016,06,16,08,10,13.40
2016,06,16,08,11,13.50
2016,06,16,08,12,13.60
2016,06,16,08,13,13.70
2016,06,16,08,14,13.80
2016,06,16,08,15,13.90
2016,06,16,08,16,14.00
2016,06,16,08,17,14.10
2016,06,16,08,18,14.10
2016,06,16,08,19,14.10
2016,06,16,08,20,14.20
2016,06,16,08,21,14.10
2016,06,16,08,22,14.10
2016,06,16,08,23,14.10
2016,06,16,08,24,14.20
2016,06,16,08,25,14.20
2016,06,16,08,26,14.30
2016,06,16,08,27,14.40
2016,06,16,08,28,14.40
2016,06,16,08,29,14.50
2016,06,16,08,30,14.60
2016,06,16,08,31,14.70
2016,06,16,08,32,14.70
2016,06,16,08,33,14.80
2016,06,16,08,34,14.80
2016,06,16,08,35,14.80
2016,06,16,08,36,14.90
2016,06,16,08,37,15.00
2016,06,16,08,38,15.10
2016,06,16,08,39,15.10
2016,06,16,08,40,15.10
2016,06,16,08,41,15.00
2016,06,16,08,42,14.90
2016,06,16,08,43,14.90
2016,06,16,08,44,14.80
2016,06,16,08,45,14.80
2016,06,16,08,46,14.90
2016,06,16,08,47,14.90
2016,06,16,08,48,14.90
2016,06,16,08,49,14.90
2016,06,16,08,50,14.90
2016,06,16,08,51,14.90
2016,06,16,08,52,15.00
2016,06,16,08,53,15.00
2016,06,16,08,54,15.00
2016,06,16,08,55,15.00
2016,06,16,08,56,15.00
2016,06,16,08,57,14.90
2016,06,16,08,58,15.00
2016,06,16,08,59,15.00
2016,06,16,09,00,15.00
2016,06,16,09,01,14.90
2016,06,16,09,02,14.70
2016,06,16,09,03,14.60
2016,06,16,09,04,14.50
2016,06,16,09,05,14.50
2016,06,16,09,06,14.40
2016,06,16,09,07,14.40
2016,06,16,09,08,14.40
2016,06,16,09,09,14.30
2016,06,16,09,10,14.20
2016,06,16,09,11,14.10
2016,06,16,09,12,14.00
2016,06,16,09,13,13.90
2016,06,16,09,14,13.90
2016,06,16,09,15,13.90
2016,06,16,09,16,13.90
2016,06,16,09,17,13.90
2016,06,16,09,18,14.00
2016,06,16,09,19,14.00
2016,06,16,09,20,14.00
2016,06,16,09,21,14.10
2016,06,16,09,22,14.00
2016,06,16,09,23,14.00
2016,06,16,09,24,13.90
2016,06,16,09,25,13.80
2016,06,16,09,26,13.80
2016,06,16,09,27,13.90
2016,06,16,09,28,13.90
2016,06,16,09,29,14.00
2016,06,16,09,30,13.90
2016,06,16,09,31,13.90
2016,06,16,09,32,13.80
2016,06,16,09,33,13.80
2016,06,16,09,34,13.70
2016,06,16,09,35,13.60
2016,06,16,09,36,13.60
2016,06,16,09,37,13.60
2016,06,16,09,38,13.50
2016,06,16,09,39,13.50
2016,06,16,09,40,13.50
2016,06,16,09,41,13.60
2016,06,16,09,42,13.50
2016,06,16,09,43,13.50
2016,06,16,09,44,13.50
2016,06,16,09,45,13.50
2016,06,16,09,46,13.50
2016,06,16,09,47,13.50
2016,06,16,09,48,13.60
2016,06,16,09,49,13.70
2016,06,16,09,50,13.80
2016,06,16,09,51,14.00
2016,06,16,09,52,14.00
2016,06,16,09,53,14.10
2016,06,16,09,54,14.20
2016,06,16,09,55,14.20
2016,06,16,09,56,14.20
2016,06,16,09,57,14.20
2016,06,16,09,58,14.10
2016,06,16,09,59,14.00
2016,06,16,10,00,13.90
2016,06,16,10,01,13.80
2016,06,16,10,02,13.80
2016,06,16,10,03,13.70
2016,06,16,10,04,13.50
2016,06,16,10,05,13.40
2016,06,16,10,06,13.40
2016,06,16,10,07,13.30
2016,06,16,10,08,13.30
2016,06,16,10,09,13.20
2016,06,16,10,10,13.10
2016,06,16,10,11,13.00
2016,06,16,10,12,12.90
2016,06,16,10,13,12.80
2016,06,16,10,14,12.70
2016,06,16,10,15,12.60
2016,06,16,10,16,12.60
2016,06,16,10,17,12.50
2016,06,16,10,18,12.50
2016,06,16,10,19,12.40
2016,06,16,10,20,12.40
2016,06,16,10,21,12.30
2016,06,16,10,22,12.30
2016,06,16,10,23,12.30
2016,06,16,10,24,12.20
2016,06,16,10,25,12.10
2016,06,16,10,26,12.10
2016,06,16,10,27,12.00
2016,06,16,10,28,11.90
2016,06,16,10,29,11.90
2016,06,16,10,30,11.80
2016,06,16,10,31,11.80
2016,06,16,10,32,11.70
2016,06,16,10,33,11.70
2016,06,16,10,34,11.60
2016,06,16,10,35,11.60
2016,06,16,10,36,11.50
2016,06,16,10,37,11.40
2016,06,16,10,38,11.30
2016,06,16,10,39,11.20
2016,06,16,10,40,11.10
2016,06,16,10,41,11.10
2016,06,16,10,42,11.00
2016,06,16,10,43,11.00
2016,06,16,10,44,11.00
2016,06,16,10,45,11.00
2016,06,16,10,46,10.90
2016,06,16,10,47,10.90
2016,06,16,10,48,10.90
2016,06,16,10,49,10.90
2016,06,16,10,50,11.00
2016,06,16,10,51,11.00
2016,06,16,10,52,11.10
2016,06,16,10,53,11.10
2016,06,16,10,54,11.10
2016,06,16,10,55,11.20
2016,06,16,10,56,11.20
2016,06,16,10,57,11.20
2016,06,16,10,58,11.20
2016,06,16,10,59,11.20
2016,06,16,11,00,11.20
2016,06,16,11,01,11.20
2016,06,16,11,02,11.30
2016,06,16,11,03,11.30
2016,06,16,11,04,11.30
2016,06,16,11,05,11.30
2016,06,16,11,06,11.30
2016,06,16,11,07,11.30
2016,06,16,11,08,11.40
2016,06,16,11,09,11.40
2016,06,16,11,10,11.50
2016,06,16,11,11,11.50
2016,06,16,11,12,11.50
2016,06,16,11,13,11.50
2016,06,16,11,14,11.50
2016,06,16,11,15,11.50
2016,06,16,11,16,11.60
2016,06,16,11,17,11.60
2016,06,16,11,18,11.60
2016,06,16,11,19,11.60
2016,06,16,11,20,11.60
2016,06,16,11,21,11.60
2016,06,16,11,22,11.60
2016,06,16,11,23,11.60
2016,06,16,11,24,11.70
2016,06,16,11,25,11.70
2016,06,16,11,26,11.70
2016,06,16,11,27,11.70
2016,06,16,11,28,11.70
2016,06,16,11,29,11.80
2016,06,16,11,30,11.90
2016,06,16,11,31,12.00
2016,06,16,11,32,12.00
2016,06,16,11,33,12.10
2016,06,16,11,34,12.10
2016,06,16,11,35,12.20
2016,06,16,11,36,12.20
2016,06,16,11,37,12.30
2016,06,16,11,38,12.40
2016,06,16,11,39,12.40
2016,06,16,11,40,12.50
2016,06,16,11,41,12.60
2016,06,16,11,42,12.60
2016,06,16,11,43,12.70
2016,06,16,11,44,12.70
2016,06,16,11,45,12.80
2016,06,16,11,46,12.90
2016,06,16,11,47,12.90
2016,06,16,11,48,13.00
2016,06,16,11,49,13.10
2016,06,16,11,50,13.20
2016,06,16,11,51,13.30
2016,06,16,11,52,13.40
2016,06,16,11,53,13.40
2016,06,16,11,54,13.40
2016,06,16,11,55,13.40
2016,06,16,11,56,13.50
2016,06,16,11,57,13.60
2016,06,16,11,58,13.60
2016,06,16,11,59,13.70
2016,06,16,12,00,13.70
2016,06,16,12,01,13.80
2016,06,16,12,02,13.80
2016,06,16,12,03,14.00
2016,06,16,12,04,14.00
2016,06,16,12,05,14.10
2016,06,16,12,06,14.10
2016,06,16,12,07,14.20
2016,06,16,12,08,14.20
2016,06,16,12,09,14.30
2016,06,16,12,10,14.30
2016,06,16,12,11,14.30
2016,06,16,12,12,14.30
2016,06,16,12,13,14.20
2016,06,16,12,14,14.20
2016,06,16,12,15,14.20
2016,06,16,12,16,14.10
2016,06,16,12,17,14.10
2016,06,16,12,18,14.10
2016,06,16,12,19,14.10
2016,06,16,12,20,14.10
2016,06,16,12,21,14.10
2016,06,16,12,22,14.20
2016,06,16,12,23,14.20
2016,06,16,12,24,14.20
2016,06,16,12,25,14.30
2016,06,16,12,26,14.40
2016,06,16,12,27,14.40
2016,06,16,12,28,14.40
2016,06,16,12,29,14.40
2016,06,16,12,30,14.50
2016,06,16,12,31,14.50
2016,06,16,12,32,14.50
2016,06,16,12,33,14.50
2016,06,16,12,34,14.40
2016,06,16,12,35,14.50
2016,06,16,12,36,14.40
2016,06,16,12,37,14.40
2016,06,16,12,38,14.40
2016,06,16,12,39,14.30
2016,06,16,12,40,14.30
2016,06,16,12,41,14.20
2016,06,16,12,42,14.20
2016,06,16,12,43,14.20
2016,06,16,12,44,14.20
2016,06,16,12,45,14.20
2016,06,16,12,46,14.20
2016,06,16,12,47,14.20
2016,06,16,12,48,14.20
2016,06,16,12,49,14.20
2016,06,16,12,50,14.20
2016,06,16,12,51,14.20
2016,06,16,12,52,14.30
2016,06,16,12,53,14.30
2016,06,16,12,54,14.40
2016,06,16,12,55,14.50
2016,06,16,12,56,14.70
2016,06,16,12,57,14.80
2016,06,16,12,58,15.00
2016,06,16,12,59,15.10
2016,06,16,13,00,15.20
2016,06,16,13,01,15.30
2016,06,16,13,02,15.30
2016,06,16,13,03,15.40
2016,06,16,13,04,15.50
2016,06,16,13,05,15.70
2016,06,16,13,06,15.90
2016,06,16,13,07,16.10
2016,06,16,13,08,16.20
2016,06,16,13,09,16.30
2016,06,16,13,10,16.30
2016,06,16,13,11,16.40
2016,06,16,13,12,16.50
2016,06,16,13,13,16.60
2016,06,16,13,14,16.60
2016,06,16,13,15,16.50
2016,06,16,13,16,16.40
2016,06,16,13,17,16.40
2016,06,16,13,18,16.30
2016,06,16,13,19,16.40
2016,06,16,13,20,16.50
2016,06,16,13,21,16.60
2016,06,16,13,22,16.80
2016,06,16,13,23,16.80
2016,06,16,13,24,16.70
2016,06,16,13,25,16.60
2016,06,16,13,26,16.50
2016,06,16,13,27,16.40
2016,06,16,13,28,16.40
2016,06,16,13,29,16.40
2016,06,16,13,30,16.30
2016,06,16,13,31,16.30
2016,06,16,13,32,16.40
2016,06,16,13,33,16.50
2016,06,16,13,34,16.60
2016,06,16,13,35,16.70
2016,06,16,13,36,16.70
2016,06,16,13,37,16.80
2016,06,16,13,38,16.80
2016,06,16,13,39,16.70
2016,06,16,13,40,16.80
2016,06,16,13,41,16.90
2016,06,16,13,42,17.00
2016,06,16,13,43,17.10
2016,06,16,13,44,17.10
2016,06,16,13,45,17.10
2016,06,16,13,46,17.00
2016,06,16,13,47,17.00
2016,06,16,13,48,17.00
2016,06,16,13,49,17.10
2016,06,16,13,50,17.30
2016,06,16,13,51,17.40
2016,06,16,13,52,17.40
2016,06,16,13,53,17.40
2016,06,16,13,54,17.30
2016,06,16,13,55,17.20
2016,06,16,13,56,17.20
2016,06,16,13,57,17.20
2016,06,16,13,58,17.20
2016,06,16,13,59,17.30
2016,06,16,14,00,17.20
2016,06,16,14,01,17.10
2016,06,16,14,02,17.00
2016,06,16,14,03,17.00
2016,06,16,14,04,16.90
2016,06,16,14,05,16.90
2016,06,16,14,06,16.80
2016,06,16,14,07,16.70
2016,06,16,14,08,16.60
2016,06,16,14,09,16.60
2016,06,16,14,10,16.60
2016,06,16,14,11,16.50
2016,06,16,14,12,16.50
2016,06,16,14,13,16.50
2016,06,16,14,14,16.50
2016,06,16,14,15,16.60
2016,06,16,14,16,16.70
2016,06,16,14,17,16.90
2016,06,16,14,18,17.00
2016,06,16,14,19,17.20
2016,06,16,14,20,17.40
2016,06,16,14,21,17.50
2016,06,16,14,22,17.60
2016,06,16,14,23,17.70
2016,06,16,14,24,17.70
2016,06,16,14,25,17.90
2016,06,16,14,26,18.00
2016,06,16,14,27,18.20
2016,06,16,14,28,18.30
2016,06,16,14,29,18.30
2016,06,16,14,30,18.20
2016,06,16,14,31,18.10
2016,06,16,14,32,18.00
2016,06,16,14,33,18.00
2016,06,16,14,34,18.10
2016,06,16,14,35,18.10
2016,06,16,14,36,18.00
2016,06,16,14,37,17.90
2016,06,16,14,38,17.80
2016,06,16,14,39,17.90
2016,06,16,14,40,18.10
2016,06,16,14,41,18.30
2016,06,16,14,42,18.30
2016,06,16,14,43,18.40
2016,06,16,14,44,18.40
2016,06,16,14,45,18.50
2016,06,16,14,46,18.60
2016,06,16,14,47,18.60
2016,06,16,14,48,18.60
2016,06,16,14,49,18.70
2016,06,16,14,50,18.70
2016,06,16,14,51,18.70
2016,06,16,14,52,18.60
2016,06,16,14,53,18.50
2016,06,16,14,54,18.50
2016,06,16,14,55,18.50
2016,06,16,14,56,18.60
2016,06,16,14,57,18.60
2016,06,16,14,58,18.60
2016,06,16,14,59,18.60
2016,06,16,15,00,18.60
2016,06,16,15,01,18.60
2016,06,16,15,02,18.50
2016,06,16,15,03,18.50
2016,06,16,15,04,18.50
2016,06,16,15,05,18.40
2016,06,16,15,06,18.30
2016,06,16,15,07,18.30
2016,06,16,15,08,18.40
2016,06,16,15,09,18.40
2016,06,16,15,10,18.40
2016,06,16,15,11,18.40
2016,06,16,15,12,18.30
2016,06,16,15,13,18.20
2016,06,16,15,14,18.00
2016,06,16,15,15,17.90
2016,06,16,15,16,17.90
2016,06,16,15,17,17.90
2016,06,16,15,18,17.80
2016,06,16,15,19,17.70
2016,06,16,15,20,17.60
2016,06,16,15,21,17.70
2016,06,16,15,22,17.70
2016,06,16,15,23,17.60
2016,06,16,15,24,17.60
2016,06,16,15,25,17.60
2016,06,16,15,26,17.70
2016,06,16,15,27,17.70
2016,06,16,15,28,17.70
2016,06,16,15,29,17.80
2016,06,16,15,30,17.80
2016,06,16,15,31,17.80
2016,06,16,15,32,17.70
2016,06,16,15,33,17.70
2016,06,16,15,34,17.60
2016,06,16,15,35,17.70
2016,06,16,15,36,17.70
2016,06,16,15,37,17.70
2016,06,16,15,38,17.70
2016,06,16,15,39,17.60
2016,06,16,15,40,17.50
2016,06,16,15,41,17.60
2016,06,16,15,42,17.70
2016,06,16,15,43,17.80
2016,06,16,15,44,17.80
2016,06,16,15,45,17.90
2016,06,16,15,46,17.90
2016,06,16,15,47,17.80
2016,06,16,15,48,17.70
2016,06,16,15,49,17.60
2016,06,16,15,50,17.60
2016,06,16,15,51,17.60
2016,06,16,15,52,17.50
2016,06,16,15,53,17.50
2016,06,16,15,54,17.50
2016,06,16,15,55,17.60
2016,06,16,15,56,17.70
2016,06,16,15,57,17.70
2016,06,16,15,58,17.70
2016,06,16,15,59,17.70
2016,06,16,16,00,17.70
2016,06,16,16,01,17.60
2016,06,16,16,02,17.60
2016,06,16,16,03,17.70
2016,06,16,16,04,17.80
2016,06,16,16,05,17.80
2016,06,16,16,06,17.80
2016,06,16,16,07,17.80
2016,06,16,16,08,17.80
2016,06,16,16,09,17.80
2016,06,16,16,10,17.80
2016,06,16,16,11,17.80
2016,06,16,16,12,17.80
2016,06,16,16,13,17.80
2016,06,16,16,14,18.00
2016,06,16,16,15,18.10
2016,06,16,16,16,18.10
2016,06,16,16,17,18.10
2016,06,16,16,18,18.10
2016,06,16,16,19,18.10
2016,06,16,16,20,18.20
2016,06,16,16,21,18.30
2016,06,16,16,22,18.30
2016,06,16,16,23,18.20
2016,06,16,16,24,18.10
2016,06,16,16,25,17.90
2016,06,16,16,26,17.70
2016,06,16,16,27,17.70
2016,06,16,16,28,17.70
2016,06,16,16,29,17.70
2016,06,16,16,30,17.60
2016,06,16,16,31,17.60
2016,06,16,16,32,17.50
2016,06,16,16,33,17.40
2016,06,16,16,34,17.30
2016,06,16,16,35,17.30
2016,06,16,16,36,17.30
2016,06,16,16,37,17.30
2016,06,16,16,38,17.20
2016,06,16,16,39,17.10
2016,06,16,16,40,17.10
2016,06,16,16,41,17.00
2016,06,16,16,42,17.10
2016,06,16,16,43,17.10
2016,06,16,16,44,17.20
2016,06,16,16,45,17.30
2016,06,16,16,46,17.30
2016,06,16,16,47,17.30
2016,06,16,16,48,17.40
2016,06,16,16,49,17.40
2016,06,16,16,50,17.30
2016,06,16,16,51,17.30
2016,06,16,16,52,17.30
2016,06,16,16,53,17.30
2016,06,16,16,54,17.40
2016,06,16,16,55,17.50
2016,06,16,16,56,17.60
2016,06,16,16,57,17.80
2016,06,16,16,58,17.90
2016,06,16,16,59,18.00
2016,06,16,17,00,18.00
2016,06,16,17,01,18.10
2016,06,16,17,02,18.10
2016,06,16,17,03,18.20
2016,06,16,17,04,18.20
2016,06,16,17,05,18.30
2016,06,16,17,06,18.40
2016,06,16,17,07,18.50
2016,06,16,17,08,18.60
2016,06,16,17,09,18.60
2016,06,16,17,10,18.70
2016,06,16,17,11,18.80
2016,06,16,17,12,18.80
2016,06,16,17,13,18.80
2016,06,16,17,14,18.90
2016,06,16,17,15,19.00
2016,06,16,17,16,19.10
2016,06,16,17,17,19.10
2016,06,16,17,18,19.00
2016,06,16,17,19,18.90
2016,06,16,17,20,18.90
2016,06,16,17,21,18.90
2016,06,16,17,22,18.90
2016,06,16,17,23,18.90
2016,06,16,17,24,19.00
2016,06,16,17,25,19.00
2016,06,16,17,26,19.10
2016,06,16,17,27,19.10
2016,06,16,17,28,19.10
2016,06,16,17,29,19.00
2016,06,16,17,30,18.90
2016,06,16,17,31,18.90
2016,06,16,17,32,18.80
2016,06,16,17,33,18.80
2016,06,16,17,34,18.70
2016,06,16,17,35,18.60
2016,06,16,17,36,18.50
2016,06,16,17,37,18.30
2016,06,16,17,38,18.20
2016,06,16,17,39,18.10
2016,06,16,17,40,18.00
2016,06,16,17,41,17.90
2016,06,16,17,42,17.90
2016,06,16,17,43,18.00
2016,06,16,17,44,18.00
2016,06,16,17,45,18.00
2016,06,16,17,46,18.10
2016,06,16,17,47,18.10
2016,06,16,17,48,18.10
2016,06,16,17,49,18.10
2016,06,16,17,50,18.10
2016,06,16,17,51,18.00
2016,06,16,17,52,18.00
2016,06,16,17,53,17.90
2016,06,16,17,54,17.90
2016,06,16,17,55,17.90
2016,06,16,17,56,17.80
2016,06,16,17,57,17.80
2016,06,16,17,58,17.70
2016,06,16,17,59,17.70
2016,06,16,18,00,17.70
2016,06,16,18,01,17.70
2016,06,16,18,02,17.70
2016,06,16,18,03,17.70
2016,06,16,18,04,17.70
2016,06,16,18,05,17.70
2016,06,16,18,06,17.70
2016,06,16,18,07,17.70
2016,06,16,18,08,17.70
2016,06,16,18,09,17.60
2016,06,16,18,10,17.50
2016,06,16,18,11,17.40
2016,06,16,18,12,17.30
2016,06,16,18,13,17.20
2016,06,16,18,14,17.10
2016,06,16,18,15,17.10
2016,06,16,18,16,17.10
2016,06,16,18,17,17.10
2016,06,16,18,18,17.20
2016,06,16,18,19,17.20
2016,06,16,18,20,17.30
2016,06,16,18,21,17.40
2016,06,16,18,22,17.50
2016,06,16,18,23,17.60
2016,06,16,18,24,17.70
2016,06,16,18,25,17.70
2016,06,16,18,26,17.80
2016,06,16,18,27,17.90
2016,06,16,18,28,17.90
2016,06,16,18,29,18.00
2016,06,16,18,30,18.10
2016,06,16,18,31,18.10
2016,06,16,18,32,18.10
2016,06,16,18,33,18.10
2016,06,16,18,34,18.10
2016,06,16,18,35,18.00
2016,06,16,18,36,18.00
2016,06,16,18,37,18.00
2016,06,16,18,38,18.10
2016,06,16,18,39,18.10
2016,06,16,18,40,18.20
2016,06,16,18,41,18.20
2016,06,16,18,42,18.20
2016,06,16,18,43,18.30
2016,06,16,18,44,18.30
2016,06,16,18,45,18.40
2016,06,16,18,46,18.40
2016,06,16,18,47,18.50
2016,06,16,18,48,18.60
2016,06,16,18,49,18.60
2016,06,16,18,50,18.60
2016,06,16,18,51,18.60
2016,06,16,18,52,18.50
2016,06,16,18,53,18.40
2016,06,16,18,54,18.30
2016,06,16,18,55,18.30
2016,06,16,18,56,18.30
2016,06,16,18,57,18.20
2016,06,16,18,58,18.20
2016,06,16,18,59,18.10
2016,06,16,19,00,18.00
2016,06,16,19,01,17.90
2016,06,16,19,02,17.80
2016,06,16,19,03,17.70
2016,06,16,19,04,17.70
2016,06,16,19,05,17.60
2016,06,16,19,06,17.60
2016,06,16,19,07,17.60
2016,06,16,19,08,17.50
2016,06,16,19,09,17.50
2016,06,16,19,10,17.50
2016,06,16,19,11,17.50
2016,06,16,19,12,17.40
2016,06,16,19,13,17.40
2016,06,16,19,14,17.30
2016,06,16,19,15,17.30
2016,06,16,19,16,17.20
2016,06,16,19,17,17.20
2016,06,16,19,18,17.20
2016,06,16,19,19,17.30
2016,06,16,19,20,17.30
2016,06,16,19,21,17.30
2016,06,16,19,22,17.30
2016,06,16,19,23,17.30
2016,06,16,19,24,17.30
2016,06,16,19,25,17.30
2016,06,16,19,26,17.30
2016,06,16,19,27,17.20
2016,06,16,19,28,17.20
2016,06,16,19,29,17.30
2016,06,16,19,30,17.30
2016,06,16,19,31,17.30
2016,06,16,19,32,17.40
2016,06,16,19,33,17.40
2016,06,16,19,34,17.40
2016,06,16,19,35,17.40
2016,06,16,19,36,17.50
2016,06,16,19,37,17.50
2016,06,16,19,38,17.60
2016,06,16,19,39,17.60
2016,06,16,19,40,17.70
2016,06,16,19,41,17.70
2016,06,16,19,42,17.70
2016,06,16,19,43,17.70
2016,06,16,19,44,17.70
2016,06,16,19,45,17.80
2016,06,16,19,46,17.80
2016,06,16,19,47,17.80
2016,06,16,19,48,17.80
2016,06,16,19,49,17.80
2016,06,16,19,50,17.80
2016,06,16,19,51,17.70
2016,06,16,19,52,17.60
2016,06,16,19,53,17.60
2016,06,16,19,54,17.50
2016,06,16,19,55,17.40
2016,06,16,19,56,17.40
2016,06,16,19,57,17.30
2016,06,16,19,58,17.30
2016,06,16,19,59,17.30
2016,06,16,20,00,17.30
2016,06,16,20,01,17.20
2016,06,16,20,02,17.20
2016,06,16,20,03,17.20
2016,06,16,20,04,17.20
2016,06,16,20,05,17.20
2016,06,16,20,06,17.10
2016,06,16,20,07,17.10
2016,06,16,20,08,17.10
2016,06,16,20,09,17.10
2016,06,16,20,10,17.00
2016,06,16,20,11,17.00
2016,06,16,20,12,16.90
2016,06,16,20,13,16.90
2016,06,16,20,14,16.90
2016,06,16,20,15,16.90
2016,06,16,20,16,16.80
2016,06,16,20,17,16.80
2016,06,16,20,18,16.80
2016,06,16,20,19,16.70
2016,06,16,20,20,16.70
2016,06,16,20,21,16.60
2016,06,16,20,22,16.50
2016,06,16,20,23,16.40
2016,06,16,20,24,16.30
2016,06,16,20,25,16.20
2016,06,16,20,26,16.10
2016,06,16,20,27,16.00
2016,06,16,20,28,16.00
2016,06,16,20,29,15.90
2016,06,16,20,30,15.90
2016,06,16,20,31,15.80
2016,06,16,20,32,15.80
2016,06,16,20,33,15.80
2016,06,16,20,34,15.80
2016,06,16,20,35,15.80
2016,06,16,20,36,15.80
2016,06,16,20,37,15.80
2016,06,16,20,38,15.80
2016,06,16,20,39,15.80
2016,06,16,20,40,15.80
2016,06,16,20,41,15.80
2016,06,16,20,42,15.80
2016,06,16,20,43,15.80
2016,06,16,20,44,15.80
2016,06,16,20,45,15.80
2016,06,16,20,46,15.80
2016,06,16,20,47,15.70
2016,06,16,20,48,15.70
2016,06,16,20,49,15.70
2016,06,16,20,50,15.70
2016,06,16,20,51,15.70
2016,06,16,20,52,15.60
2016,06,16,20,53,15.60
2016,06,16,20,54,15.60
2016,06,16,20,55,15.60
2016,06,16,20,56,15.60
2016,06,16,20,57,15.50
2016,06,16,20,58,15.50
2016,06,16,20,59,15.50
2016,06,16,21,00,15.40
2016,06,16,21,01,15.40
2016,06,16,21,02,15.30
2016,06,16,21,03,15.30
2016,06,16,21,04,15.30
2016,06,16,21,05,15.30
2016,06,16,21,06,15.30
2016,06,16,21,07,15.30
2016,06,16,21,08,15.30
2016,06,16,21,09,15.30
2016,06,16,21,10,15.20
2016,06,16,21,11,15.20
2016,06,16,21,12,15.20
2016,06,16,21,13,15.10
2016,06,16,21,14,15.10
2016,06,16,21,15,15.10
2016,06,16,21,16,15.10
2016,06,16,21,17,15.00
2016,06,16,21,18,14.90
2016,06,16,21,19,14.90
2016,06,16,21,20,14.90
2016,06,16,21,21,14.80
2016,06,16,21,22,14.80
2016,06,16,21,23,14.70
2016,06,16,21,24,14.70
2016,06,16,21,25,14.70
2016,06,16,21,26,14.60
2016,06,16,21,27,14.60
2016,06,16,21,28,14.60
2016,06,16,21,29,14.60
2016,06,16,21,30,14.50
2016,06,16,21,31,14.50
2016,06,16,21,32,14.50
2016,06,16,21,33,14.50
2016,06,16,21,34,14.40
2016,06,16,21,35,14.40
2016,06,16,21,36,14.40
2016,06,16,21,37,14.40
2016,06,16,21,38,14.40
2016,06,16,21,39,14.40
2016,06,16,21,40,14.40
2016,06,16,21,41,14.40
2016,06,16,21,42,14.30
2016,06,16,21,43,14.30
2016,06,16,21,44,14.30
2016,06,16,21,45,14.20
2016,06,16,21,46,14.20
2016,06,16,21,47,14.20
2016,06,16,21,48,14.10
2016,06,16,21,49,14.00
2016,06,16,21,50,13.90
2016,06,16,21,51,13.80
2016,06,16,21,52,13.70
2016,06,16,21,53,13.60
2016,06,16,21,54,13.60
2016,06,16,21,55,13.70
2016,06,16,21,56,13.80
2016,06,16,21,57,13.80
2016,06,16,21,58,13.80